HST 1 20580U 90037B 26127.71581695 .00005876 00000+0 18705-3 0 9993 2 20580 28.4762 357.0772 0002154 56.1313 303.9488 15.30317018782368 POLAR 1 23802U 96013A 26127.21500419 .00000085 00000+0 00000+0 0 9995 2 23802 79.8127 227.5283 6429535 210.4870 87.3577 1.29845918144324 SWAS 1 25560U 98071A 26127.85778832 .00002662 00000+0 17285-3 0 9990 2 25560 69.8967 331.4988 0007987 298.4705 61.5654 15.09344789491187 CXO 1 25867U 99040B 26129.70737146 .00000792 00000+0 00000+0 0 9991 2 25867 55.5364 117.7999 7900392 310.4423 0.0547 0.37799268 17171 XMM-NEWTON 1 25989U 99066A 26129.45509902 .00000108 00000+0 00000+0 0 9994 2 25989 64.6913 283.4821 4687036 65.5825 0.1657 0.50127500 22808 TERRA 1 25994U 99068A 26127.96621591 .00000323 00000+0 74692-4 0 9997 2 25994 97.9486 179.1011 0002497 30.6975 90.1539 14.61070950403733 CLUSTER II-FM7 (SAMBA) 1 26410U 00041A 26130.20719946 .00003007 00000+0 00000+0 0 9996 2 26410 149.7574 44.0320 9007788 260.7661 0.4598 0.44818912 20131 CLUSTER II-FM8 (TANGO) 1 26464U 00045B 26130.14160082 .00003120 00000+0 00000+0 0 9999 2 26464 150.0346 45.1293 9013438 261.7017 0.4740 0.44409144 20129 ODIN 1 26702U 01007A 26127.55134659 .00078482 00000+0 78805-3 0 9990 2 26702 97.3938 166.2327 0000797 222.5609 137.5589 15.65237580383020 TIMED 1 26998U 01055B 26127.86380040 .00001027 00000+0 97056-4 0 9992 2 26998 74.0673 316.2053 0001207 193.5859 166.5294 14.95196555324791 CORIOLIS 1 27640U 03001A 26127.89105446 .00000090 00000+0 62696-4 0 9999 2 27640 98.7139 135.3899 0013413 333.5704 26.4786 14.19933616208504 SORCE 1 27651U 03004A 26127.69035903 .00002175 00000+0 16738-3 0 9993 2 27651 39.9892 132.6849 0016150 124.0928 236.1400 15.03489958265804 MOST 1 27843U 03031D 26127.87385741 .00000054 00000+0 44624-4 0 9994 2 27843 98.7057 136.1611 0010110 15.6634 344.4854 14.21314029184988 SCISAT 1 1 27858U 03036A 26127.84231541 .00000614 00000+0 83154-4 0 9993 2 27858 73.9301 251.4971 0008111 317.8046 42.2506 14.81404749225475 SWIFT 1 28485U 04047A 26127.36344581 .00039628 00000+0 38151-3 0 9992 2 28485 20.5515 138.8559 0002888 115.3765 244.6979 15.64633492180452 HINODE (SOLAR-B) 1 29479U 06041A 26127.78237032 .00000639 00000+0 11824-3 0 9998 2 29479 98.0568 144.5291 0018721 59.2082 301.0963 14.68564849 48942 SHIJIAN-6 02A (SJ-6 02A) 1 29505U 06046A 26127.97895110 .00003584 00000+0 18762-3 0 9991 2 29505 97.6395 168.7517 0001422 283.7958 76.3116 15.16485414 66171 SHIJIAN-6 02B (SJ-6 02B) 1 29506U 06046B 26128.02323609 .00001420 00000+0 11512-3 0 9991 2 29506 97.7149 157.3319 0011210 193.3983 166.6945 15.01260363 64713 FGRST (GLAST) 1 33053U 08029A 26127.69441426 .00002517 00000+0 88175-4 0 9994 2 33053 25.5811 125.5902 0008027 205.9890 154.0246 15.23726998989653 SDO 1 36395U 10005A 26127.37459214 -.00000055 00000+0 00000+0 0 9994 2 36395 34.5680 86.9587 0000892 33.7462 137.5696 1.00272715 59658 CRYOSAT 2 1 36508U 10013A 26127.90104415 .00000093 00000+0 22453-4 0 9990 2 36508 92.0309 267.5199 0002642 88.3050 271.8460 14.51897261852236 X-SAT 1 37389U 11015C 26127.92746326 .00000089 00000+0 55417-4 0 9997 2 37389 98.3497 106.8754 0015240 99.6725 260.6178 14.25193981781945 GCOM-W1 (SHIZUKU) 1 38337U 12025A 26127.86190124 .00000433 00000+0 10613-3 0 9996 2 38337 98.2003 69.0342 0001465 102.1655 324.3026 14.57086423743169 NUSTAR 1 38358U 12031A 26128.00002315 .00020892 00000+0 12449-2 0 9996 2 38358 6.0283 335.4922 0009097 234.3190 242.7386 15.08422117 1300 NEOSSAT 1 39089U 13009D 26127.51241956 .00000138 00000+0 62315-4 0 9995 2 39089 98.4172 308.5141 0011229 14.1647 345.9852 14.35812347690900 BRITE-AUSTRIA 1 39091U 13009F 26127.74020226 .00000154 00000+0 67023-4 0 9997 2 39091 98.3988 308.1791 0010270 8.0964 352.0386 14.36525877691242 IRIS 1 39197U 13033A 26127.62439685 .00000953 00000+0 11530-3 0 9999 2 39197 97.9358 327.0257 0025912 91.6510 268.7674 14.85802006694350 HISAKI (SPRINT-A) 1 39253U 13049A 26127.84305058 .00000118 00000+0 75833-4 0 9999 2 39253 29.7197 65.1182 0136589 49.8466 311.3981 13.55539531625943 CASSIOPE 1 39265U 13055A 26127.96763436 .00024821 -53336-6 28484-3 0 9994 2 39265 80.9135 115.4399 0301685 197.2725 161.8073 15.22363007661548 STSAT-3 1 39422U 13066G 26127.89110031 .00000591 00000+0 48945-4 0 9995 2 39422 97.6179 98.4572 0010047 156.2535 203.9156 15.02512104678159 SWARM B 1 39451U 13067A 26127.86825583 .00002779 00000+0 99539-4 0 9995 2 39451 87.7462 354.5633 0002622 99.8173 260.3372 15.28316910677083 SWARM A 1 39452U 13067B 26127.88207858 .00009401 00000+0 16630-3 0 9996 2 39452 87.3323 71.1996 0003564 88.0377 272.1291 15.50135836700003 SWARM C 1 39453U 13067C 26127.88200587 .00009444 00000+0 16705-3 0 9999 2 39453 87.3324 69.7808 0003555 87.7271 272.4396 15.50137648699963 BRITE-CA1 (TORONTO) 1 40020U 14033L 26127.88201614 .00000735 00000+0 11786-3 0 9995 2 40020 97.9681 257.5682 0079621 46.7234 314.0580 14.72621668636283 OCO 2 1 40059U 14035A 26127.91461500 .00000380 00000+0 94362-4 0 9993 2 40059 98.1999 69.8271 0001319 87.6088 272.5262 14.57077596630184 BRITE-PL2 (HEWELIUSZ) 1 40119U 14049B 26127.86676202 .00001958 00000+0 18693-3 0 9990 2 40119 97.9053 239.5711 0012795 240.3089 119.6857 14.94445819635424 MMS 1 1 40482U 15011A 26128.00002315 -.00000463 00000+0 00000+0 0 9998 2 40482 71.5856 349.3254 8358017 166.4453 159.3278 0.28362014 1386 MMS 2 1 40483U 15011B 26128.00002315 -.00000463 00000+0 00000+0 0 9999 2 40483 71.5858 349.3275 8358779 166.4511 159.3144 0.28362030 1382 MMS 3 1 40484U 15011C 26128.00002315 -.00000463 00000+0 00000+0 0 9990 2 40484 71.5853 349.3329 8357790 166.4463 159.3080 0.28361603 1380 MMS 4 1 40485U 15011D 26128.00002315 -.00000463 00000+0 00000+0 0 9991 2 40485 71.5822 349.3284 8357352 166.4539 159.2960 0.28361592 1388 ASTROSAT 1 40930U 15052A 26127.72635586 .00001533 00000+0 10513-3 0 9993 2 40930 5.9969 86.5593 0007944 180.8445 179.1670 14.82437570573812 DAMPE 1 41173U 15078A 26127.96559262 .00000823 00000+0 30343-4 0 9998 2 41173 97.4572 133.2374 0010852 212.3147 147.7430 15.30684245578397 PISAT 1 41784U 16059B 26127.95487117 .00000859 00000+0 15410-3 0 9990 2 41784 97.8184 130.1387 0028419 336.9899 23.0032 14.68912376513834 HXMT (HUIYAN) 1 42758U 17034A 26128.00417120 .00003964 00000+0 19977-3 0 9992 2 42758 43.0152 46.7253 0032971 251.1661 108.5611 15.18114662491555 FLYING LAPTOP 1 42831U 17042G 26127.98715321 .00002645 00000+0 21169-3 0 9994 2 42831 97.4514 285.1183 0017693 260.7322 99.1902 15.00884713480421 ZHANGHENG 1-01 (CSES-1) 1 43194U 18015C 26127.93803420 .00006217 00000+0 28378-3 0 9999 2 43194 97.6847 292.8024 0017360 47.2365 313.0327 15.20848270458525 SALSAT 1 46495U 20068K 26127.58311436 .00005913 00000+0 21124-3 0 9993 2 46495 97.8866 128.1971 0011678 86.8461 273.4114 15.29205626309157 IXPE 1 49954U 21121A 26128.00002315 .00013627 00000+0 75987-3 0 9995 2 49954 0.2310 261.6386 0007281 193.0372 288.9575 15.09890778 5243